This is the latest recevied weather packets stored in our database for station/object K5WNG. If no packets are shown the sender has not sent any weather packets the latest 10 day(s).
| Time | Temp. | Humidity | Pressure | Rain* | Wind** | Luminosity | Snow |
|---|---|---|---|---|---|---|---|
| 1778028018 | 27.22° C | 75% | 1006.2 hPa | 0 mm | - | 55 W/m² | - |
| 1778027718 | 27.22° C | 75% | 1006.1 hPa | 0 mm | - | 48 W/m² | - |
| 1778027419 | 27.78° C | 75% | 1006.2 hPa | 0 mm | - | 53 W/m² | - |
| 1778027118 | 27.78° C | 74% | 1006.2 hPa | 0 mm | - | 67 W/m² | - |
| 1778026818 | 27.78° C | 73% | 1006.2 hPa | 0 mm | - | 66 W/m² | - |
| 1778026516 | 27.78° C | 73% | 1006.2 hPa | 0 mm | - | 77 W/m² | - |
| 1778026219 | 27.78° C | 72% | 1006.1 hPa | 0 mm | - | 81 W/m² | - |
| 1778025919 | 27.78° C | 72% | 1006.1 hPa | 0 mm | - | 89 W/m² | - |
| 1778025619 | 28.33° C | 72% | 1006 hPa | 0 mm | - | 99 W/m² | - |
| 1778025316 | 28.33° C | 72% | 1006 hPa | 0 mm | - | 108 W/m² | - |
| 1778025016 | 28.33° C | 71% | 1005.9 hPa | 0 mm | - | 113 W/m² | - |
| 1778024716 | 28.33° C | 71% | 1005.8 hPa | 0 mm | - | 136 W/m² | - |
| 1778024421 | 28.33° C | 71% | 1005.8 hPa | 0 mm | - | 147 W/m² | - |
| 1778024116 | 28.33° C | 71% | 1005.8 hPa | 0 mm | - | 159 W/m² | - |
| 1778023821 | 28.33° C | 71% | 1005.7 hPa | 0 mm | - | 200 W/m² | - |
| 1778023516 | 28.33° C | 71% | 1005.8 hPa | 0 mm | - | 160 W/m² | - |
| 1778023217 | 28.89° C | 71% | 1005.7 hPa | 0 mm | - | 175 W/m² | - |
| 1778022917 | 28.89° C | 70% | 1005.7 hPa | 0 mm | - | 192 W/m² | - |
| 1778022619 | 28.89° C | 70% | 1005.7 hPa | 0 mm | - | 204 W/m² | - |
| 1778022317 | 28.89° C | 70% | 1005.7 hPa | 0 mm | - | 174 W/m² | - |
| 1778022017 | 29.44° C | 69% | 1005.7 hPa | 0 mm | - | 177 W/m² | - |
| 1778021717 | 29.44° C | 69% | 1005.6 hPa | 0 mm | - | 184 W/m² | - |
| 1778021420 | 29.44° C | 68% | 1005.6 hPa | 0 mm | - | 249 W/m² | - |
| 1778021120 | 29.44° C | 69% | 1005.7 hPa | 0 mm | - | 244 W/m² | - |
| 1778020820 | 29.44° C | 68% | 1005.5 hPa | 0 mm | - | 260 W/m² | - |
* Rain latest hour (hover to see other rain measurements)
** Current wind speed in m/s (hover to see current wind gust speed)